Regional Weather Roundup
Issued by NWS

Home | Current Version | Previous Version | Text Only | Print | Product List | Glossary On
Versions: 1 2 3 4 5 6 7 8 9 10 11 12 13 14 15 16 17 18 19 20 21 22 23 24 25 26 27 28 29 30 31 32 33 34 35 36 37 38 39 40 41 42 43 44 45 46 47 48 49 50
000
ASUS44 KEWX 012202
RWRTX
SOUTH TEXAS REGIONAL WEATHER ROUNDUP
NATIONAL WEATHER SERVICE AUSTIN/SAN ANTONIO TX
400 PM CST SUN MAR 01 2015

NOTE: "FAIR" INDICATED FEW OR NO CLOUDS BELOW 12,000 FEET WITH NO
SIGNIFICANT WEATHER AND/OR OBSTRUCTIONS TO VISIBILITY.

* - THESE STATIONS ARE NOT NWS OR FAA STATIONS...AND ARE NOT SUBJECT
    TO NWS AND FAA QUALITY CONTROL.

TXZ171-172-183>190-012300-
TEXAS HILL COUNTRY AND EDWARDS PLATEAU

CITY           SKY/WX    TMP DP  RH WIND       PRES   REMARKS
JUNCTION       CLOUDY    40  39  97 E10       30.22S FOG     WCI  33
*LLANO         CLOUDY    43  39  87 N7        30.30R FOG     WCI  39
BURNET         CLOUDY    41  39  93 N9        30.26R FOG     WCI  35
*HORSESHOE BAY CLOUDY    42  42 100 N5        30.25R FOG     WCI  39
*KERRVILLE     DRIZZLE   44  42  95 N7        30.21R WCI  40
*FREDERICKSBRG CLOUDY    41  40  97 N7        30.20F FOG     WCI  36
*ROCKSPRINGS   FOG       43  43 100 NE7       30.19S VSB 1/2 WCI  39
*BOERNE STAGE  CLOUDY    45  43  93 N7        30.20S VSB 3/4 WCI  41
*CASTROVILLE   CLOUDY    49  49  98 NE5       30.20S FOG     WCI  47
HONDO          CLOUDY    51  49  92 N9        30.20F FOG
*UVALDE        CLOUDY    51  50  95 E6        30.18S
DEL RIO        CLOUDY    52  46  80 NW7       30.17F
LAUGHLIN AFB   CLOUDY    52  46  82 N5        30.16F
CARRIZO SPRGS  CLOUDY    50  46  87 N6        30.17F WCI  48
$$

TXZ173-191>194-202-209-217>225-228-012300-
CENTRAL AND SOUTH CENTRAL TEXAS

CITY           SKY/WX    TMP DP  RH WIND       PRES   REMARKS
GEORGETOWN     CLOUDY    43  39  87 N9        30.25R WCI  37
AUSTIN/BERGSTM LGT RAIN  43  42  97 N12       30.24R FOG     WCI  37
AUSTIN/MABRY   CLOUDY    43  41  93 N6        30.24F FOG     WCI  39
*AUSTIN/EXEC   MIX PCPN  41  41 100 N15       30.24F WCI  33
*LAGO VISTA    FOG       42  40  95 N7        30.23S VSB 1   WCI  37
SAN MARCOS     CLOUDY    43  41  93 N15G21    30.23S FOG     WCI  35
NEW BRAUNFELS  CLOUDY    45  44  97 NE15      30.19F FOG     WCI  38
RANDOLPH AFB   CLOUDY    45  44  96 N10       30.19R WCI  40
PT SAN ANTONIO CLOUDY    47  46  96 NE8       30.17S WCI  44
SAN ANTONIO    CLOUDY    47  44  90 N7        30.20R WCI  44
STINSON FIELD  LGT RAIN  48  45  89 NE9       30.18F FOG     WCI  44
*PLEASANTON    CLOUDY    46  45  96 NE7       30.20S WCI  42
*LA GRANGE     FOG       44  44  98 N8        30.21S VSB 1   WCI  40
*GIDDINGS      FOG       41  41  99 N10       30.26S VSB 3/4 WCI  35
*GONZALES      DRIZZLE   44  44  99 N12       30.20S WCI  38
$$

TXZ163>164-176>182-195>201-210>213-226-227-235-012300-
SOUTHEAST TEXAS

CITY           SKY/WX    TMP DP  RH WIND       PRES   REMARKS
COLLEGE STN    CLOUDY    44  42  93 N12       30.24R FOG     WCI  38
*BRYAN         CLOUDY    43  43  99 N9        30.25R FOG     WCI  38
*CALDWELL      FOG       43  43 100 N7        30.27R VSB 3/4 WCI  39
*CROCKETT      CLOUDY    46  46 100 N6        30.27S FOG     WCI  43
*BRENHAM       FOG       46  45  97 N7        30.23S VSB 3/4 WCI  42
HUNTSVILLE     CLOUDY    45  44  97 N6        30.22S FOG     WCI  42
CONROE         CLOUDY    51  49  92 N8        30.21R FOG
HOUSTON BUSH   FOG       58  57  97 N7        30.18S VSB 1/4
HOUSTON HOBBY  CLOUDY    66  61  84 N8        30.16S
*HOUSTON SW AP NOT AVBL
PEARLAND       CLOUDY    72  64  76 N7        30.17R
HOUSTON HOOKS  CLOUDY    52  51  97 N6        30.19S FOG
ELLINGTON FLD  PTSUNNY   72  70  94 NW7       30.17S FOG
SUGAR LAND     CLOUDY    58  55  90 N9        30.17F FOG
*HOUSTON EXEC  CLOUDY    48  48 100 N10       30.20S FOG     WCI  44
*CLEVELAND MUN   N/A     54  54  98 N8        30.20S FOG
*WHARTON       CLOUDY    52  51  97 N12       30.19S FOG
*COLUMBUS      CLOUDY    46  46  99 N7        30.19F FOG     WCI  42
$$

TXZ214>216-236>238-012300-
THE UPPER TEXAS COAST

CITY           SKY/WX    TMP DP  RH WIND       PRES   REMARKS
*ORANGE        CLOUDY    65  65  97 S5        30.19S FOG
PORT ARTHUR    CLOUDY    70  68  93 S7        30.17S FOG
GALVESTON      CLOUDY   N/A N/A N/A S8        30.16S FOG
ANGLETON       PTSUNNY   73  67  81 NW3       30.14F
*BAY CITY      CLOUDY    65  64  94 N6        30.15S
PALACIOS       CLOUDY    60  56  86 N12       30.16S
$$

TXZ229>234-239>247-012300-
TEXAS COASTAL BEND AND RIO GRANDE PLAINS

CITY           SKY/WX    TMP DP  RH WIND       PRES   REMARKS
VICTORIA       CLOUDY    51  49  92 N9        30.18S FOG
*BEEVILLE      FOG       48  48 100 N7        30.17S VSB 3/4 WCI  44
ROCKPORT       CLOUDY    56  53  90 N8        30.15F FOG
*PORT ARANSAS  CLOUDY    54  53  98 N7        30.16R FOG
*PORT LAVACA   CLOUDY    53  52  96 N12       30.17S FOG
*INGLESIDE     CLOUDY    41  40  96 NW7       30.15F FOG     WCI  37
CORPUS CHRISTI DRZL/FOG  52  51  97 N8        30.16F VSB 1
CORPUS NAS     CLOUDY    52  52 100 NW9       30.16S FOG
*ROBSTOWN      CLOUDY    52  52 100 N8        30.17F FOG
ALICE          CLOUDY    52  49  89 N7        30.16S FOG
KINGSVILLE NAS CLOUDY    52  52 100 N7        30.16F
COTULLA        CLOUDY    51  47  86 N6        30.18S FOG
*FAITH RANCH   CLOUDY    50  48  93 N6        30.17F WCI  48
LAREDO         CLOUDY    54  48  80 CALM      30.18S
$$

TXZ248>255-012300-
DEEP SOUTH TEXAS

CITY           SKY/WX    TMP DP  RH WIND       PRES   REMARKS
BROWNSVILLE    CLOUDY    60  55  83 N6        30.13S
PORT ISABEL    CLOUDY    58  55  90 N6        30.13F FOG
*SOUTH PADRE   SUNNY     55  55 100 NW9       30.13F VSB 1
HARLINGEN      CLOUDY    57  54  89 N8        30.14S
*HEBBRONVILLE  CLOUDY   N/A N/A N/A N5        30.15F HAZE
MCALLEN        SUNNY     65  54  67 N8        30.13F
*WESLACO       CLOUDY    57  52  85 N5        30.14F HAZE
FALFURRIAS     CLOUDY    53  50  91 N7        30.15F
EDINBURG       CLOUDY    59  53  79 N5        30.15F
*ZAPATA        CLOUDY    60  49  66 N5        30.14S
$$

TXZ213>215-236>238-242>244-246-247-251-254-255-012300-
CMAN STATIONS

STATION/POSITION TIME  TEMP    WIND        PRES    WAVE
                       AIR SEA DIR/SP/G            HT/PER
                 (UTC) (F)     (DEG/KT/KT) (MB)    (FT/S)
SABINE PASS      2100   60 52  150/  5/  6 1021.7
SEA RIM ST PARK  2100   62     150/  5/  7 1022.2
NORTH JETTY/GLS  2100   64 53  180/  9/  9 1020.1
EAGLE POINT      2100   65 49  210/ 12/ 14 1021.2
MORGANS POINT    2100   66 54  130/  2/  5 1021.1
MISSION/ARANSAS  2100   53     VRB  6      1022.0
PORT O`CONNOR    2120          330/ 11/ 11   N/A
PORT ARANSAS     2100   54 55  340/  8/  9 1021.2
MALAQUITE BEACH  2120   52 56  320/  8/ 10 1020.7
BAFFIN BAY       2120   51     340/  8/  9 1021.2
PORT ISABEL      2120   54 58   10/  7/ 10 1020.4
$$

GMZ080-GMZ150>470-012300-
OFFSHORE BUOY REPORTS

STATION/POSITION TIME  TEMP    WIND        PRES    WAVE
                       AIR SEA DIR/SP/G            HT/PER
                 (UTC) (F)     (DEG/KT/KT) (MB)    (FT/S)
20 E GALVESTON   2200   63 60   70/  4/  4 1021.0    3/ 8
90 E PT ARANSAS  2200   69 68  110/  4/  4 1020.7    5/ 8
35 NE PT MANSFLD 2200   60 65  330/ 12/ 14 1020.0    5/ 8
200 E PT ISABEL  2200   72 70  140/ 14/ 16 1020.6    4/ 7
$$



USA.gov is the U.S. government's official web portal to all federal, state and local government web resources and services.